TimeCDT,TemperatureF,Dew PointF,Humidity,Sea Level PressureIn,VisibilityMPH,Wind Direction,Wind SpeedMPH,Gust SpeedMPH,PrecipitationIn,Events,Conditions,WindDirDegrees,DateUTC
12:15 AM,39.2,37.4,93,29.66,1.2,Calm,Calm,-,N/A,,Overcast,0,2013-10-31 05:15:00
12:35 AM,39.2,37.4,93,29.64,1.5,Calm,Calm,-,N/A,,Overcast,0,2013-10-31 05:35:00
12:55 AM,39.2,37.4,93,29.64,1.5,Calm,Calm,-,N/A,,Overcast,0,2013-10-31 05:55:00
1:15 AM,39.2,37.4,93,29.63,1.2,SSE,4.6,-,N/A,,Overcast,160,2013-10-31 06:15:00
1:35 AM,39.2,37.4,93,29.63,1.2,South,5.8,-,N/A,,Overcast,180,2013-10-31 06:35:00
1:55 AM,39.2,37.4,93,29.62,3.0,Calm,Calm,-,N/A,,Overcast,0,2013-10-31 06:55:00
2:15 AM,39.2,37.4,93,29.62,2.5,Calm,Calm,-,N/A,,Overcast,0,2013-10-31 07:15:00
2:35 AM,39.2,37.4,93,29.61,1.2,Calm,Calm,-,N/A,,Overcast,0,2013-10-31 07:35:00
2:55 AM,39.2,37.4,93,29.60,1.8,Calm,Calm,-,N/A,,Overcast,0,2013-10-31 07:55:00
3:15 AM,39.2,37.4,93,29.59,1.2,Calm,Calm,-,N/A,,Overcast,0,2013-10-31 08:15:00
3:35 AM,39.2,37.4,93,29.59,2.5,Calm,Calm,-,N/A,,Overcast,0,2013-10-31 08:35:00
3:55 AM,39.2,37.4,93,29.59,2.5,Calm,Calm,-,N/A,,Overcast,0,2013-10-31 08:55:00
4:15 AM,39.2,37.4,93,29.57,3.0,NNW,3.5,-,N/A,,Overcast,330,2013-10-31 09:15:00
4:35 AM,39.2,37.4,93,29.55,4.0,NNW,3.5,-,N/A,,Overcast,330,2013-10-31 09:35:00
4:55 AM,39.2,37.4,93,29.55,7.0,NW,5.8,-,N/A,,Overcast,310,2013-10-31 09:55:00
5:15 AM,39.2,37.4,93,29.55,8.0,NW,3.5,-,N/A,,Overcast,310,2013-10-31 10:15:00
5:35 AM,39.2,37.4,93,29.54,8.0,NW,4.6,-,N/A,,Overcast,310,2013-10-31 10:35:00
5:55 AM,39.2,37.4,93,29.54,7.0,NW,5.8,-,N/A,,Overcast,310,2013-10-31 10:55:00
6:15 AM,39.2,37.4,93,29.54,3.0,NW,6.9,-,N/A,,Overcast,320,2013-10-31 11:15:00
6:35 AM,39.2,37.4,93,29.53,0.8,NNW,6.9,-,N/A,,Overcast,330,2013-10-31 11:35:00
6:55 AM,39.2,37.4,93,29.52,0.5,NNW,5.8,-,N/A,,Overcast,330,2013-10-31 11:55:00
7:15 AM,39.2,37.4,93,29.52,0.5,NNW,6.9,-,N/A,,Overcast,330,2013-10-31 12:15:00
7:35 AM,39.2,37.4,93,29.53,0.5,Calm,Calm,-,N/A,,Overcast,0,2013-10-31 12:35:00
7:55 AM,39.2,37.4,93,29.51,0.5,NNW,4.6,-,N/A,,Overcast,330,2013-10-31 12:55:00
8:15 AM,39.2,37.4,93,29.50,0.5,North,6.9,-,N/A,,Overcast,350,2013-10-31 13:15:00
8:35 AM,39.2,37.4,93,29.50,0.2,North,3.5,-,N/A,,Overcast,360,2013-10-31 13:35:00
8:55 AM,39.2,37.4,93,29.50,0.2,NNW,3.5,-,N/A,,Overcast,340,2013-10-31 13:55:00
9:15 AM,39.2,37.4,93,29.50,0.2,North,4.6,-,N/A,,Overcast,350,2013-10-31 14:15:00
9:35 AM,39.2,37.4,93,29.50,0.5,NNW,4.6,-,N/A,,Overcast,330,2013-10-31 14:35:00
9:55 AM,39.2,37.4,93,29.51,0.5,Calm,Calm,-,N/A,,Overcast,0,2013-10-31 14:55:00
10:15 AM,39.2,37.4,93,29.51,0.8,Calm,Calm,-,N/A,,Overcast,0,2013-10-31 15:15:00
10:35 AM,39.2,37.4,93,29.49,0.5,Calm,Calm,-,N/A,,Overcast,0,2013-10-31 15:35:00
10:55 AM,39.2,37.4,93,29.49,0.2,NW,5.8,-,N/A,,Overcast,320,2013-10-31 15:55:00
11:15 AM,39.2,37.4,93,29.48,0.5,WNW,3.5,-,N/A,,Overcast,300,2013-10-31 16:15:00
11:35 AM,39.2,37.4,93,29.47,0.5,NW,4.6,-,N/A,,Overcast,310,2013-10-31 16:35:00
11:55 AM,39.2,37.4,93,29.47,0.8,WNW,4.6,-,N/A,,Overcast,300,2013-10-31 16:55:00
12:15 PM,39.2,37.4,93,29.46,1.0,NW,6.9,-,N/A,,Overcast,310,2013-10-31 17:15:00
12:35 PM,39.2,37.4,93,29.45,0.8,NW,6.9,-,N/A,,Overcast,320,2013-10-31 17:35:00
12:55 PM,39.2,37.4,93,29.44,0.5,NW,6.9,-,N/A,,Overcast,310,2013-10-31 17:55:00
1:15 PM,39.2,37.4,93,29.43,0.5,NNW,5.8,-,N/A,,Overcast,340,2013-10-31 18:15:00
1:35 PM,39.2,37.4,93,29.42,0.5,WNW,6.9,-,N/A,,Overcast,300,2013-10-31 18:35:00
1:55 PM,39.2,37.4,93,29.41,0.2,NW,8.1,-,N/A,,Overcast,310,2013-10-31 18:55:00
2:15 PM,39.2,37.4,93,29.40,1.5,NW,8.1,-,N/A,,Overcast,310,2013-10-31 19:15:00
2:35 PM,39.2,37.4,93,29.40,3.0,NW,9.2,-,N/A,,Overcast,320,2013-10-31 19:35:00
2:55 PM,39.2,37.4,93,29.39,5.0,NW,9.2,-,N/A,,Overcast,310,2013-10-31 19:55:00
3:15 PM,39.2,37.4,93,29.39,3.0,NNW,10.4,-,N/A,,Overcast,330,2013-10-31 20:15:00
3:35 PM,39.2,37.4,93,29.39,1.0,NW,11.5,-,N/A,,Overcast,320,2013-10-31 20:35:00
3:55 PM,39.2,37.4,93,29.38,3.0,NW,10.4,-,N/A,,Overcast,310,2013-10-31 20:55:00
4:15 PM,39.2,37.4,93,29.38,1.8,NW,9.2,-,N/A,,Overcast,320,2013-10-31 21:15:00
4:35 PM,39.2,37.4,93,29.38,9.0,NW,8.1,-,N/A,,Overcast,320,2013-10-31 21:35:00
4:55 PM,39.2,37.4,93,29.37,6.0,NNW,11.5,-,N/A,,Overcast,340,2013-10-31 21:55:00
5:15 PM,39.2,37.4,93,29.38,5.0,NNW,11.5,-,N/A,,Overcast,330,2013-10-31 22:15:00
5:35 PM,39.2,37.4,93,29.38,6.0,NNW,12.7,-,N/A,,Overcast,340,2013-10-31 22:35:00
5:55 PM,39.2,37.4,93,29.38,5.0,NNW,10.4,-,N/A,,Overcast,330,2013-10-31 22:55:00
6:15 PM,39.2,35.6,87,29.38,3.0,NW,11.5,-,N/A,,Overcast,310,2013-10-31 23:15:00
6:35 PM,39.2,37.4,93,29.38,3.0,NW,9.2,-,N/A,,Overcast,320,2013-10-31 23:35:00
6:55 PM,37.4,35.6,93,29.38,2.5,NW,9.2,-,N/A,,Overcast,310,2013-10-31 23:55:00
7:15 PM,39.2,35.6,87,29.38,3.0,NNW,6.9,-,N/A,,Overcast,330,2013-11-01 00:15:00
7:35 PM,37.4,35.6,93,29.38,5.0,NNW,8.1,-,N/A,,Overcast,330,2013-11-01 00:35:00
7:55 PM,37.4,35.6,93,29.38,10.0,NNW,11.5,-,N/A,,Overcast,340,2013-11-01 00:55:00
8:15 PM,37.4,35.6,93,29.38,10.0,NNW,11.5,-,N/A,,Overcast,330,2013-11-01 01:15:00
8:35 PM,37.4,35.6,93,29.38,10.0,NW,8.1,-,N/A,,Overcast,320,2013-11-01 01:35:00
8:55 PM,37.4,35.6,93,29.38,10.0,NW,6.9,-,N/A,,Overcast,310,2013-11-01 01:55:00
9:15 PM,37.4,35.6,93,29.38,10.0,WNW,5.8,-,N/A,,Overcast,300,2013-11-01 02:15:00
9:35 PM,37.4,35.6,93,29.39,10.0,WNW,6.9,-,N/A,,Overcast,300,2013-11-01 02:35:00
9:55 PM,37.4,35.6,93,29.39,9.0,WNW,6.9,-,N/A,,Overcast,300,2013-11-01 02:55:00
10:15 PM,37.4,35.6,93,29.39,8.0,WNW,9.2,-,N/A,,Overcast,300,2013-11-01 03:15:00
10:35 PM,37.4,35.6,93,29.39,6.0,WNW,8.1,-,N/A,,Overcast,300,2013-11-01 03:35:00
10:55 PM,37.4,35.6,93,29.40,6.0,WNW,9.2,-,N/A,,Overcast,300,2013-11-01 03:55:00
11:15 PM,37.4,35.6,93,29.40,6.0,NW,6.9,-,N/A,,Overcast,310,2013-11-01 04:15:00
11:35 PM,37.4,35.6,93,29.39,6.0,WNW,5.8,-,N/A,,Overcast,300,2013-11-01 04:35:00
11:55 PM,37.4,35.6,93,29.39,6.0,NW,5.8,-,N/A,,Mostly Cloudy,310,2013-11-01 04:55:00